Regional Weather Roundup
Issued by NWS

Home | Current Version | Previous Version | Text Only | Print | Product List | Glossary Off
Versions: 1 2 3 4 5 6 7 8 9 10 11 12 13 14 15 16 17 18 19 20 21 22 23 24 25 26 27 28 29 30 31 32 33 34 35 36 37 38 39 40 41 42 43 44 45 46 47 48 49 50

000
ASUS43 KDMX 281906
RWRIA

WEATHER ROUNDUP FOR IOWA
NATIONAL WEATHER SERVICE DES MOINES IA
200 PM CDT WED JUN 28 2017

NOTE: "FAIR" INDICATES FEW OR NO CLOUDS BELOW 12,000 FEET WITH NO
SIGNIFICANT WEATHER AND/OR OBSTRUCTIONS TO VISIBILITY.

* - THESE STATIONS ARE NOT NWS STATIONS...THUS NOT UNDER NWS
QUALITY CONTROL.  THEY ALSO DO NOT REPORT WEATHER SUCH
AS PRECIPITATION OR FOG.

IAZ001>003-012>014-020>022-031>034-043>046-282000-
   NORTHWEST IOWA

CITY           SKY/WX    TMP DP  RH WIND       PRES   REMARKS
CARROLL *      CLOUDY    86  70  58 SW18G30   29.65S HX  90
CHEROKEE *     MOSUNNY   82  72  72 SW12G20   29.62F HX  87
DENISON *      PTSUNNY   84  70  61 SW13G25   29.66S HX  88
LE MARS *      MOSUNNY   84  66  54 SW10G18   29.63S HX  86
ORANGE CITY *  MOSUNNY   82  66  57 W13G20    29.63S HX  85
SHELDON *      MOSUNNY   82  66  57 W15       29.61S HX  85
SIOUX CITY     MOSUNNY   85  70  60 SW10      29.62S HX  89
SPENCER        MOSUNNY   81  68  64 SW14G25   29.62S HX  84
STORM LAKE *   MOSUNNY   79  72  78 W7        29.64F HX  82
$$

IAZ055>058-069>071-079>083-090>094-282000-
   SOUTHWEST IOWA

CITY           SKY/WX    TMP DP  RH WIND       PRES   REMARKS
ATLANTIC *     PTSUNNY   81  72  74 S16G22    29.68F HX  84
AUDUBON *      MOSUNNY   82  72  69 S16G24    29.69F HX  87
CLARINDA *     PTSUNNY   84  73  70 SW15G23   29.73S HX  91
COUNCIL BLFS * PTSUNNY   82  73  74 SW12G21   29.68S HX  88
CRESTON *      CLOUDY    81  70  69 S21       29.74F HX  84
HARLAN  *      PTSUNNY   81  72  74 SW15G24   29.71S HX  84
LAMONI         PTSUNNY   82  71  69 SW21G31   29.76S HX  86
RED OAK *      PTSUNNY   84  73  70 SW16G22   29.69F HX  91
SHENANDOAH *   CLOUDY    84  73  70 SW14G21   29.70S HX  91
$$

IAZ047>049-059>061-072>074-084-282000-
   CENTRAL IOWA

CITY           SKY/WX    TMP DP  RH WIND       PRES   REMARKS
AMES           MOSUNNY   84  71  65 SW22G31   29.68S HX  89
ANKENY *       MOSUNNY   84  70  61 SW16G31   29.71R HX  88
BOONE *        MOSUNNY   82  70  65 SW12G28   29.67F HX  86
CHARITON *     PTSUNNY   81  70  69 SW18G24   29.76S HX  84
DES MOINES     PTSUNNY   83  69  62 SW17G31   29.70R HX  86
GRINNELL*      PTSUNNY   80  68  65 SW21G28   29.75R HX  83
KNOXVILLE *    CLOUDY    81  68  65 SW18G30   29.73R HX  83
MARSHALLTOWN   PTSUNNY   84  71  65 SW18G28   29.69S HX  89
NEWTON *       PTSUNNY   81  70  69 SW18G30   29.72S HX  84
PELLA *        PTSUNNY   81  68  64 SW18G26   29.76R HX  84
PERRY *          N/A     84  72  68 S20G26    29.68S HX  89
$$

IAZ004>006-015-016-023>025-035-036-282000-
   NORTH CENTRAL IOWA

CITY           SKY/WX    TMP DP  RH WIND       PRES   REMARKS
ALGONA *       CLOUDY    73  72  94 S14G21    29.64F
CLARION *        N/A     73  73 100 S15G21    29.65F
ESTHERVILLE    SUNNY     78  69  73 SW20G25   29.61S HX  80
FORT DODGE *   CLOUDY    75  66  73 S6        29.66F
MASON CITY     TSTM      69  65  86 SW17G28   29.66F FOG
FOREST CITY *  LGT RAIN  72  63  73 S13G21    29.64F
WEBSTER CITY * CLOUDY    77  70  78 S5        29.64F
IOWA FALLS *   PTSUNNY   76  69  78 SW6       29.70F
$$

IAZ007>011-017>019-026>030-037>042-050>054-066-282000-
   NORTHEAST IOWA

CITY           SKY/WX    TMP DP  RH WIND       PRES   REMARKS
CEDAR RAPIDS   PTSUNNY   78  71  79 SW17G29   29.74S HX  80
CHARLES CITY * LGT RAIN  70  70 100 S8G16     29.71R
CLINTON *      CLOUDY    76  68  76 MISG      29.79F
DECORAH *      CLOUDY    70  66  88 S9        29.70R
DUBUQUE        CLOUDY    71  67  87 S16       29.77S
MONTICELLO *   CLOUDY    77  70  78 S10G17    29.75F
OELWEIN *      CLOUDY    77  68  73 S16G26    29.72F
WATERLOO       LGT RAIN  77  67  71 S14       29.69S
$$

IAZ064-065-067-068-078-282000-
   EAST CENTRAL IOWA

CITY           SKY/WX    TMP DP  RH WIND       PRES   REMARKS
IOWA CITY      PTSUNNY   82  68  62 S20G32    29.76F HX  85
MT. PLEASANT * MOSUNNY   82  67  60 S18G28    29.79F HX  84
MUSCATINE *    PTSUNNY   82  68  61 S18G28    29.78F HX  85
QUAD CITIES    CLOUDY    80  67  64 S26G36    29.79F HX  82
$$

IAZ062-063-075>077-085>089-095>099-282000-
   SOUTHEAST IOWA

CITY           SKY/WX    TMP DP  RH WIND       PRES   REMARKS
BURLINGTON     CLOUDY    80  69  69 S22G29    29.81F HX  83
FAIRFIELD *    MOSUNNY   84  68  58 S18G31    29.76F HX  87
FORT MADISON * CLOUDY    82  70  65 S17G24    29.82F HX  86
KEOKUK *       CLOUDY    82  68  61 S14G26    29.82S HX  85
OSKALOOSA *      N/A     82  69  63 SW20G30   29.76S HX  85
CENTERVILLE *    N/A     82  70  65 S17G29    29.80S HX  86
OTTUMWA        MOSUNNY   84  69  60 SW22G33   29.74F HX  88
WASHINGTON *   MOSUNNY   82  70  65 S20G28    29.77F HX  86
$$

ABBREVIATIONS USED IN REMARKS
   TC - TEMPERATURES IN CELSIUS
  WCI - WIND CHILL INDEX
   HX - HEAT INDEX
  VSB - VISIBILITY
$$





USA.gov is the U.S. government's official web portal to all federal, state and local government web resources and services.